Regional Weather Roundup
Issued by NWS

Home | Current Version | Previous Version | Graphics & Text | Print | Product List | Glossary On
Versions: 1 2 3 4 5 6 7 8 9 10 11 12 13 14 15 16 17 18 19 20 21 22 23 24 25 26 27 28 29 30 31 32 33 34 35 36 37 38 39 40 41 42 43 44 45 46 47 48 49 50
000
ASUS45 KBOI 300310
RWRID
WEATHER ROUNDUP FOR IDAHO
NATIONAL WEATHER SERVICE BOISE ID
900 PM MDT TUE JUL 29 2014

NOTE: "FAIR" INDICATES FEW OR NO CLOUDS BELOW 12000 FEET
WITH NO SIGNIFICANT WEATHER AND/OR OBSTRUCTIONS TO VISIBILITY

IDZ012-014-300400-
SOUTHWEST IDAHO


CITY           SKY/WX    TMP DP  RH WIND       PRES   REMARKS
BOISE          CLOUDY    86  46  24 S6        30.03R
CALDWELL       CLOUDY    82  48  30 E12       30.02R
MOUNTAIN HOME  CLOUDY    81  59  47 E22       30.07R THUNDER
$$

IDZ016-017-300400-
SOUTHCENTRAL IDAHO


CITY           SKY/WX    TMP DP  RH WIND       PRES   REMARKS
BURLEY         MOCLDY    69  54  58 N12G21    30.19R
JEROME         LGT RAIN  67  57  70 N17G25    30.19R
TWIN FALLS     CLOUDY    74  52  46 NW7       30.20R
$$

IDZ019>023-300400-
SOUTHEAST IDAHO


CITY           SKY/WX    TMP DP  RH WIND       PRES   REMARKS
IDAHO FALLS    CLOUDY    65  57  75 NW7       30.23R
POCATELLO      CLOUDY    72  58  61 N7        30.20R
REXBURG        CLOUDY    70  55  59 NE5       30.24R
$$

IDZ006-010-011-018-031-032-300400-
CENTRAL IDAHO MOUNTAINS


CITY           SKY/WX    TMP DP  RH WIND       PRES   REMARKS
MCCALL         PTCLDY    79  36  21 N7        30.16S
HAILEY         CLOUDY    63  59  88 CALM      30.30R
STANLEY          N/A     66  43  43 S3        30.30R
SALMON         CLOUDY    75  48  38 SE20G32   30.13R
CHALLIS        CLOUDY    77  39  25 CALM      30.18R
$$

IDZ002-004-006-007-026-300400-
NORTHERN IDAHO


CITY           SKY/WX    TMP DP  RH WIND       PRES   REMARKS
LEWISTON       PTCLDY    99  35  10 NW3       29.91R HX  93
LOWELL           N/A     76  60  57 N3        29.94R
COEUR D`ALENE  CLEAR     88  54  31 CALM      29.96S
MULLAN PASS    PTCLDY    74  36  25 CALM      30.28S
$$



USA.gov is the U.S. government's official web portal to all federal, state and local government web resources and services.